Hourly Weather Golabek

Today, 7 May, Friday

Time Temperature Precipitation Wind Pressure Humidity
00:00 +5°C° 0 mm 2 mps 741 mmHg 87%
01:00 +6°C° 0 mm 2 mps 741 mmHg 86%
02:00 +6°C° 0.4 mm 2 mps 740 mmHg 89%
03:00 +6°C° 0.4 mm 2 mps 740 mmHg 92%
04:00 +7°C° 0.4 mm 1 mps 739 mmHg 95%
05:00 +6°C° 0.6 mm 2 mps 739 mmHg 95%
06:00 +6°C° 0.6 mm 2 mps 739 mmHg 95%
07:00 +6°C° 0.6 mm 2 mps 739 mmHg 95%
08:00 +6°C° 0.7 mm 2 mps 739 mmHg 95%
09:00 +8°C° 0.7 mm 1 mps 739 mmHg 94%
10:00 +8°C° 0.7 mm 1 mps 739 mmHg 94%
11:00 +8°C° 0.1 mm 1 mps 738 mmHg 92%
12:00 +9°C° 0.1 mm 1 mps 738 mmHg 89%
13:00 +9°C° 0.1 mm 1 mps 738 mmHg 87%
14:00 +8°C° 0.7 mm 2 mps 738 mmHg 88%
15:00 +8°C° 0.7 mm 2 mps 738 mmHg 90%
16:00 +8°C° 0.7 mm 2 mps 738 mmHg 91%
17:00 +7°C° 0.6 mm 3 mps 739 mmHg 91%
18:00 +6°C° 0.6 mm 4 mps 739 mmHg 92%
19:00 +5°C° 0.6 mm 5 mps 739 mmHg 93%
20:00 +5°C° 0.2 mm 5 mps 740 mmHg 93%
21:00 +3°C° 0.2 mm 6 mps 740 mmHg 94%
22:00 +2°C° 0.2 mm 6 mps 741 mmHg 94%
23:00 0°C° 1 mm 7 mps 741 mmHg 96%

Tomorrow, 8 May, Saturday

Time Temperature Precipitation Wind Pressure Humidity
00:00 -1°C° 1 mm 7 mps 742 mmHg 97%
01:00 -2°C° 1 mm 7 mps 743 mmHg 98%
02:00 -1°C° 1.3 mm 7 mps 743 mmHg 98%
03:00 -1°C° 1.3 mm 6 mps 744 mmHg 97%
04:00 +1°C° 1.3 mm 6 mps 744 mmHg 97%
05:00 +1°C° 0 mm 6 mps 745 mmHg 96%
06:00 +1°C° 0 mm 6 mps 746 mmHg 95%
07:00 +1°C° 0 mm 6 mps 746 mmHg 95%
08:00 +2°C° 0 mm 6 mps 747 mmHg 92%
09:00 +2°C° 0 mm 6 mps 747 mmHg 90%
10:00 +3°C° 0 mm 5 mps 748 mmHg 88%
11:00 +5°C° 0.1 mm 5 mps 748 mmHg 83%
12:00 +6°C° 0.1 mm 5 mps 748 mmHg 78%
13:00 +7°C° 0.1 mm 6 mps 748 mmHg 73%
14:00 +7°C° 0.2 mm 5 mps 748 mmHg 72%
15:00 +8°C° 0.2 mm 5 mps 748 mmHg 71%
16:00 +8°C° 0.2 mm 5 mps 748 mmHg 70%
17:00 +7°C° 0.1 mm 4 mps 749 mmHg 75%
18:00 +5°C° 0.1 mm 3 mps 749 mmHg 79%
19:00 +5°C° 0.1 mm 2 mps 749 mmHg 84%
20:00 +5°C° 0 mm 2 mps 750 mmHg 84%
21:00 +4°C° 0 mm 2 mps 750 mmHg 84%
22:00 +4°C° 0 mm 1 mps 750 mmHg 84%
23:00 +3°C° 0 mm 2 mps 751 mmHg 84%

Day after tomorrow, 9 May, Sunday

Time Temperature Precipitation Wind Pressure Humidity
00:00 +3°C° 0 mm 2 mps 751 mmHg 85%
01:00 +3°C° 0 mm 2 mps 751 mmHg 86%
02:00 +3°C° 0 mm 2 mps 751 mmHg 86%
03:00 +2°C° 0 mm 3 mps 751 mmHg 87%
04:00 +1°C° 0 mm 3 mps 751 mmHg 87%
05:00 +3°C° 0 mm 3 mps 751 mmHg 82%
06:00 +5°C° 0 mm 3 mps 752 mmHg 78%
07:00 +7°C° 0 mm 4 mps 752 mmHg 73%
08:00 +10°C° 0 mm 4 mps 751 mmHg 67%
09:00 +10°C° 0 mm 5 mps 751 mmHg 62%
10:00 +13°C° 0 mm 5 mps 751 mmHg 57%
11:00 +14°C° 0 mm 5 mps 751 mmHg 54%
12:00 +15°C° 0 mm 5 mps 751 mmHg 52%
13:00 +16°C° 0 mm 5 mps 751 mmHg 49%
14:00 +16°C° 0 mm 5 mps 750 mmHg 52%
15:00 +16°C° 0 mm 5 mps 750 mmHg 55%
16:00 +17°C° 0 mm 4 mps 750 mmHg 58%
17:00 +14°C° 0 mm 4 mps 750 mmHg 64%
18:00 +13°C° 0 mm 4 mps 750 mmHg 70%
19:00 +11°C° 0 mm 4 mps 750 mmHg 77%
20:00 +11°C° 0 mm 4 mps 750 mmHg 77%
21:00 +10°C° 0 mm 4 mps 750 mmHg 78%
22:00 +9°C° 0 mm 5 mps 750 mmHg 78%
23:00 +8°C° 0 mm 5 mps 750 mmHg 80%

10 May, Monday

Time Temperature Precipitation Wind Pressure Humidity
00:00 +8°C° 0 mm 5 mps 750 mmHg 81%
01:00 +7°C° 0 mm 5 mps 750 mmHg 82%
02:00 +7°C° 0 mm 5 mps 750 mmHg 81%
03:00 +7°C° 0 mm 5 mps 750 mmHg 80%
04:00 +6°C° 0 mm 5 mps 750 mmHg 80%
05:00 +8°C° 0 mm 6 mps 750 mmHg 77%
06:00 +9°C° 0 mm 6 mps 750 mmHg 73%
07:00 +11°C° 0 mm 6 mps 750 mmHg 70%
08:00 +12°C° 0 mm 7 mps 750 mmHg 66%
09:00 +15°C° 0 mm 8 mps 750 mmHg 61%
10:00 +17°C° 0 mm 8 mps 749 mmHg 56%
11:00 +18°C° 0 mm 8 mps 749 mmHg 56%
12:00 +20°C° 0 mm 8 mps 749 mmHg 56%
13:00 +21°C° 0 mm 8 mps 749 mmHg 55%
14:00 +21°C° 0 mm 8 mps 749 mmHg 58%
15:00 +20°C° 0 mm 8 mps 749 mmHg 60%
16:00 +20°C° 0 mm 8 mps 748 mmHg 62%
17:00 +18°C° 0 mm 7 mps 749 mmHg 66%
18:00 +16°C° 0 mm 7 mps 749 mmHg 70%
19:00 +15°C° 0 mm 6 mps 749 mmHg 74%
20:00 +14°C° 0 mm 6 mps 749 mmHg 76%
21:00 +14°C° 0 mm 6 mps 749 mmHg 77%
22:00 +13°C° 0 mm 6 mps 749 mmHg 79%
23:00 +11°C° 0 mm 6 mps 749 mmHg 79%

11 May, Tuesday

Time Temperature Precipitation Wind Pressure Humidity
00:00 +11°C° 0 mm 6 mps 749 mmHg 79%
01:00 +10°C° 0 mm 6 mps 749 mmHg 79%
02:00 +10°C° 0 mm 6 mps 749 mmHg 78%
03:00 +9°C° 0 mm 6 mps 748 mmHg 77%
04:00 +9°C° 0 mm 6 mps 748 mmHg 76%
05:00 +10°C° 0 mm 7 mps 748 mmHg 74%
06:00 +11°C° 0 mm 7 mps 748 mmHg 73%
07:00 +12°C° 0 mm 8 mps 748 mmHg 72%
08:00 +13°C° 0 mm 8 mps 748 mmHg 68%
09:00 +16°C° 0 mm 8 mps 748 mmHg 65%
10:00 +18°C° 0 mm 9 mps 748 mmHg 61%
11:00 +19°C° 0 mm 9 mps 748 mmHg 60%
12:00 +19°C° 0 mm 9 mps 748 mmHg 59%
13:00 +21°C° 0 mm 8 mps 747 mmHg 59%
14:00 +21°C° 0 mm 8 mps 747 mmHg 60%
15:00 +21°C° 0 mm 8 mps 747 mmHg 62%
16:00 +20°C° 0 mm 8 mps 747 mmHg 64%
17:00 +18°C° 0 mm 8 mps 747 mmHg 66%
18:00 +17°C° 0 mm 7 mps 746 mmHg 67%
19:00 +15°C° 0 mm 7 mps 746 mmHg 69%
20:00 +15°C° 0 mm 7 mps 746 mmHg 68%
21:00 +14°C° 0 mm 7 mps 746 mmHg 67%
22:00 +12°C° 0 mm 7 mps 746 mmHg 65%
23:00 +12°C° 0 mm 7 mps 746 mmHg 68%

12 May, Wednesday

Time Temperature Precipitation Wind Pressure Humidity
00:00 +12°C° 0 mm 7 mps 745 mmHg 70%
01:00 +11°C° 0 mm 7 mps 745 mmHg 73%
02:00 +11°C° 0 mm 7 mps 745 mmHg 75%
03:00 +11°C° 0 mm 7 mps 745 mmHg 78%
04:00 +11°C° 0 mm 7 mps 744 mmHg 80%
05:00 +12°C° 0 mm 8 mps 744 mmHg 80%
06:00 +13°C° 0 mm 8 mps 744 mmHg 80%
07:00 +15°C° 0 mm 8 mps 744 mmHg 79%
08:00 +17°C° 0 mm 8 mps 744 mmHg 74%
09:00 +18°C° 0 mm 9 mps 744 mmHg 69%
10:00 +21°C° 0 mm 9 mps 743 mmHg 63%
11:00 +22°C° 0 mm 9 mps 743 mmHg 62%
12:00 +22°C° 0 mm 8 mps 743 mmHg 61%
13:00 +23°C° 0 mm 8 mps 743 mmHg 59%
14:00 +22°C° 0 mm 8 mps 742 mmHg 61%
15:00 +22°C° 0 mm 8 mps 742 mmHg 63%
16:00 +21°C° 0 mm 8 mps 742 mmHg 65%
17:00 +20°C° 0 mm 8 mps 741 mmHg 69%
18:00 +17°C° 0 mm 7 mps 741 mmHg 74%
19:00 +16°C° 0 mm 7 mps 741 mmHg 78%
20:00 +15°C° 0 mm 7 mps 741 mmHg 81%
21:00 +14°C° 0 mm 7 mps 741 mmHg 84%
22:00 +14°C° 0 mm 7 mps 741 mmHg 87%
23:00 +12°C° 0 mm 7 mps 740 mmHg 86%
Show more